Location: La Grelle
(45.9833°N, 1.2167°E)
Time: 01:44:56
(UTC+00:00)

Daily predictions for brighter satellites

Satellite Brightness Start Highest point End
(mag) Time Altitude Azimuth Time Altitude Azimuth Time Altitude Azimuth
Cosmos 1464 Rocket 4.1 00:08:47 57° ESE 00:09:24 60° E 00:15:30 10° NNE
Cosmos 2333 4.1 00:04:19 10° NNW 00:10:08 87° WSW 00:10:14 86° SSW
Cosmos 2219 Rocket 2.3 00:04:58 10° NNW 00:10:40 68° ENE 00:11:13 63° E
Lacrosse 4 Rocket 2.5 00:13:01 42° NE 00:13:01 42° NE 00:15:53 10° NNE
Cosmos 2233 Rocket 4.3 00:10:46 50° WSW 00:11:45 55° WNW 00:17:58 10° N
Cosmos 1782 Rocket 4.4 00:12:54 46° NE 00:12:54 46° NE 00:16:09 10° NNE
Cosmos 836 Rocket 4.5 00:06:39 10° NNW 00:11:32 78° NNW 00:11:32 78° NNW
Cosmos 1354 Rocket 4.5 00:16:38 52° E 00:16:38 52° E 00:21:23 10° NNE
Cosmos 2322 Rocket 3.8 00:14:05 10° NW 00:17:43 22° W 00:17:43 22° W
Cosmos 968 Rocket 3.5 00:19:13 77° N 00:19:13 77° N 00:23:59 10° NNE
Cosmos 1908 Rocket 4.3 00:21:10 49° NNW 00:21:10 49° NNW 00:24:39 10° N
COSMOS 2428 2.6 00:23:01 10° NNW 00:28:48 82° ENE 00:29:11 77° ESE
SL-16 R/B 3.8 00:28:37 20° ESE 00:32:02 34° ENE 00:37:35 10° N
CENTAUR R/B 4.1 00:27:25 11° W 00:32:55 34° NNW 00:39:32 10° NNE
Nadezhda 4 Rocket 4.1 00:27:52 10° N 00:34:11 68° E 00:35:18 57° SE
Cosmos 2360 Rocket 3.4 00:29:21 10° NW 00:33:24 30° W 00:33:24 30° W
Cosmos 2034 Rocket 4.0 00:35:41 62° SE 00:36:30 69° E 00:42:46 10° NNE
CZ-2D R/B 3.7 00:32:51 10° NE 00:37:14 24° E 00:38:05 23° ESE
Cosmos 1513 Rocket 4.4 00:37:32 69° SSW 00:38:22 83° W 00:44:51 10° N
Cosmos 1072 Rocket 4.3 00:39:08 69° SW 00:39:46 77° W 00:45:55 10° N
Okean 2 Rocket 3.9 00:41:46 46° ENE 00:41:46 46° ENE 00:45:32 10° NNE
Meteor 2-9 Rocket 4.0 00:41:29 79° WSW 00:41:40 80° W 00:47:22 10° N
GEOS 3 Rocket 3.8 00:37:36 10° NE 00:42:46 59° ESE 00:42:46 59° ESE
Cosmos 1975 4.0 00:45:31 38° NNW 00:45:31 38° NNW 00:48:20 10° N
Cosmos 2297 Rocket 3.4 00:45:36 29° ESE 00:45:54 29° ESE 00:50:41 10° NE
Cosmos 2219 4.1 00:45:50 34° ESE 00:46:02 34° ESE 00:51:02 10° NE
Cosmos 1092 Rocket 4.5 00:40:07 10° N 00:46:14 53° ENE 00:48:01 41° SE
Cosmos 1975 Rocket 3.8 00:42:06 10° NNW 00:45:36 49° NW 00:45:36 49° NW
Cosmos 1980 4.3 00:42:14 10° NNW 00:47:47 51° ENE 00:49:51 35° ESE
Sich 1 Rocket 4.0 00:48:43 62° N 00:48:43 62° N 00:52:24 10° N
Cosmos 2333 Rocket 2.4 00:42:50 10° NNW 00:48:11 58° W 00:48:11 58° W
PSLV R/B 4.1 00:44:12 10° N 00:48:26 58° NW 00:48:26 58° NW
Helios 1B rocket 3.1 00:45:39 10° NNE 00:48:49 52° N 00:48:49 52° N
Cosmos 44 Rocket 3.3 00:50:09 10° NW 00:55:08 82° NE 00:55:08 82° NE
Cosmos 783 Rocket 4.4 00:50:17 10° NNW 00:55:27 83° W 00:55:27 83° W
Cosmos 1503 Rocket 4.1 00:56:39 63° W 00:56:57 64° WNW 01:02:19 10° NNE
Cosmos 1300 Rocket 4.0 00:57:53 58° NE 00:57:53 58° NE 01:01:33 10° NNE
Cosmos 2237 Rocket 2.7 00:52:17 10° NNW 00:57:53 57° ENE 00:59:51 37° ESE
CZ-4 R/B 4.4 01:00:50 10° N 01:05:37 49° WNW 01:05:48 48° WNW
Spot 1 4.4 01:06:48 61° NE 01:06:48 61° NE 01:10:34 10° N
Cosmos 2151 Rocket 3.7 01:12:29 69° NE 01:12:29 69° NE 01:16:34 10° NNE
Meteor 1-12 Rocket 4.2 01:11:28 66° S 01:12:23 89° ESE 01:18:26 10° N
Timation 2 Rocket 3.8 01:14:34 63° SSW 01:15:39 84° ESE 01:21:44 10° NNE
Cosmos 1707 3.8 01:14:26 10° NNW 01:17:05 39° NW 01:17:05 39° NW
In-Cosmos 22 4.1 01:12:45 10° N 01:18:25 88° ENE 01:19:15 66° SSE
Cosmos 1805 4.4 01:24:26 35° E 01:24:26 35° E 01:27:51 10° NNE
SJ 16-02 3.1 01:25:10 22° ESE 01:25:46 22° E 01:29:12 10° NE
ERBS 4.2 01:23:46 10° NW 01:26:44 29° NNE 01:29:40 10° E
Meteor 2-13 Rocket 4.3 01:26:34 10° N 01:32:40 81° W 01:34:10 54° S
Cosmos 2227 Rocket 2.4 01:33:34 50° SSE 01:34:41 60° ESE 01:40:16 10° NNE
Cosmos 1538 Rocket 3.8 01:29:47 10° NNW 01:34:59 88° WSW 01:35:51 63° SSE
Cosmos 2195 Rocket 4.4 01:28:59 10° N 01:35:19 79° W 01:37:03 51° S
Cosmos 1025 Rocket 3.7 01:32:47 10° NNW 01:36:08 42° WNW 01:36:08 42° WNW
MOZ.5/SAFIR/RUBIN 5/SL-8 3.8 01:37:00 66° W 01:37:00 66° W 01:41:44 10° NNW
Resurs 1-4 Rocket 2.1 01:33:03 10° NNE 01:38:22 77° ESE 01:39:24 58° S
Cosmos 1674 3.0 01:36:32 10° N 01:39:47 63° NNE 01:39:47 63° NNE
Cosmos 1733 4.1 01:42:54 39° E 01:43:03 39° E 01:46:39 10° NNE
NOSS 0 Rocket 4.1 01:38:07 10° NW 01:44:05 48° WSW 01:44:40 47° SW
ATLAS 3B R/B 4.2 01:40:56 12° W 01:46:08 29° NNW 01:51:51 10° NNE
Cosmos 773 Rocket 4.4 01:41:42 10° NNW 01:46:17 44° W 01:46:17 44° W
Cosmos 2279 Rocket 4.2 01:44:46 38° SSE 01:47:10 67° E 01:53:19 10° NNE
Cosmos 1536 Rocket 4.1 01:44:50 10° NNW 01:48:26 43° WNW 01:48:26 43° WNW
Cosmos 2026 Rocket 3.9 01:43:19 10° NNW 01:49:23 72° W 01:51:09 47° SSW
USA 215 3.5 01:43:00 10° ENE 01:49:26 55° SE 01:51:29 40° S
COBE Rocket 4.3 01:47:33 31° SE 01:49:31 54° ENE 01:54:03 10° N
Lacrosse 4 Rocket 3.7 01:49:19 13° WNW 01:50:51 16° NW 01:53:26 10° N
Cosmos 1627 Rocket 4.5 01:45:52 10° NNW 01:51:57 65° W 01:53:39 47° SSW
Cosmos 1634 Rocket 4.0 01:50:26 47° SSW 01:52:19 73° W 01:58:33 10° N
Cosmos 2219 Rocket 3.8 01:50:02 10° NW 01:52:54 19° W 01:52:54 19° W
Cosmos 2082 4.2 01:53:29 37° SSE 01:55:17 50° ESE 02:00:42 10° NE
Cosmos 2344 4.4 01:45:44 10° NW 01:55:24 77° SW 02:08:57 10° SSE
IRAS Rocket 4.3 01:57:00 49° SW 01:57:59 56° WSW 02:03:30 10° NNW
SL-4 R/B 2.3 01:58:02 31° NW 01:59:20 51° NNE 02:02:40 10° E
Cosmos 2142 Rocket 4.5 02:00:57 42° SSW 02:03:19 81° W 02:09:46 10° N
Meteor 1-24 Rocket 3.8 02:00:14 10° N 02:05:44 69° ENE 02:08:55 25° SSE
SL-16 R/B 2.4 02:00:50 10° NNW 02:06:33 73° ENE 02:12:13 10° SSE
CBERS-1 4.3 02:02:06 10° NNE 02:07:12 63° ESE 02:09:09 36° SSE
Meteor 2-5 Rocket 3.6 02:03:47 10° NNW 02:09:28 85° W 02:11:58 35° S
Cosmos 1898 Rocket 4.3 02:11:41 26° SSE 02:14:07 43° ESE 02:19:02 10° NE
ARIANE 5 R/B 3.8 02:09:47 10° NNE 02:14:35 36° E 02:18:02 17° SSE
SL-16 R/B 2.9 02:13:42 38° SW 02:15:28 47° W 02:21:30 10° NNW
NPP 3.8 02:11:15 10° N 02:16:35 63° WNW 02:18:22 40° SW
IDEFIX/ARIANE 42P 4.4 02:13:04 10° NE 02:17:21 25° E 02:21:37 10° SSE
CZ-2D R/B 2.5 02:12:15 10° N 02:17:35 53° WNW 02:19:24 37° WSW
Cosmos 1680 Rocket 3.6 02:13:02 10° NNW 02:18:18 76° ENE 02:22:57 13° SSE
NOSS 3-1 (C) 4.1 02:17:24 26° SSE 02:19:50 40° ESE 02:25:31 10° NE
USA 267 3.7 02:15:28 10° ESE 02:21:55 65° NNE 02:28:23 10° NW
AQUA 3.9 02:18:21 10° N 02:23:04 62° WNW 02:24:26 43° SW
Cosmos 1607 3.9 02:18:41 10° NW 02:25:10 86° WSW 02:31:39 10° SSE
Cosmos 990 Rocket 4.3 02:23:20 30° S 02:25:44 59° ESE 02:30:50 10° NNE
ADEOS II 2.1 02:20:36 10° NNE 02:25:54 81° ESE 02:28:23 32° S
Cosmos 1766 3.5 02:26:32 48° W 02:26:54 50° WNW 02:30:43 10° N
Cosmos 2263 Rocket 4.0 02:23:59 10° SSE 02:28:18 24° ESE 02:32:38 10° NE
Meteor 1-22 Rocket 4.0 02:27:11 35° SSW 02:29:28 85° W 02:34:49 10° N
Cosmos 2297 Rocket 2.7 02:27:24 31° WSW 02:29:41 47° WNW 02:35:10 10° NNE
IRS-1D 3.4 02:24:40 10° NNE 02:29:44 81° WNW 02:31:54 35° SSW
Cosmos 2219 3.9 02:27:45 28° WSW 02:30:04 41° NW 02:35:23 10° NNE
Okean 1-7 Rocket 3.6 02:27:56 10° N 02:32:21 77° E 02:35:04 23° SSE
IRS-1C 4.3 02:30:09 10° NNE 02:35:30 71° ESE 02:38:42 25° S
TIMED 4.4 02:32:22 10° NNW 02:36:46 81° WSW 02:39:35 22° SSE
Cosmos 1626 2.2 02:34:47 10° NNW 02:38:26 55° W 02:38:57 49° SW
Meteor 1-28 Rocket 3.5 02:36:22 20° SSE 02:38:51 66° ENE 02:42:38 10° N
Okean 1 Rocket 4.1 02:38:14 28° W 02:38:59 30° WNW 02:42:51 10° N
Cosmos 2266 Rocket 4.0 02:32:57 10° N 02:39:22 90° SE 02:45:02 13° S
Cosmos 1655 Rocket 4.0 02:33:58 10° NNW 02:40:12 69° W 02:44:28 21° S
Cosmos 2237 Rocket 3.3 02:37:06 10° NW 02:41:31 24° WSW 02:41:37 24° WSW
CZ-4B R/B 3.6 02:38:19 10° N 02:42:58 52° WNW 02:44:51 32° SW
Cosmos 1470 2.8 02:41:43 32° S 02:43:25 76° E 02:47:24 10° NNE
SL-08 R/B 3.3 02:43:56 14° SSE 02:48:10 85° WSW 02:53:10 10° NNW
Cosmos 923 Rocket 4.3 02:43:12 10° NNW 02:48:18 47° WSW 02:51:06 25° SSW
USA 229 DEB 3.9 02:48:34 22° SSW 02:52:50 62° ESE 02:59:34 10° NE
USA 229 3.9 02:48:39 22° SSW 02:52:54 61° ESE 02:59:37 10° NE
Cosmos 2098 Rocket 3.5 02:49:35 10° NNW 02:54:21 70° W 02:59:34 14° S
Cosmos 158 Rocket 4.2 02:50:55 10° NNW 02:56:07 53° WSW 03:00:32 14° S
OPS 8737 4.3 02:56:59 36° SSW 02:58:20 83° SE 03:01:24 10° NE
SL-14 R/B 4.1 02:59:23 10° NNW 03:02:54 32° W 03:03:47 28° WSW
ERBS 2.8 02:59:58 10° WNW 03:03:32 35° SSW 03:06:07 10° SSE
NOSS 3-1 (A) 3.9 03:00:07 18° S 03:04:02 50° ESE 03:10:03 10° NE
SJ 16-02 2.1 03:02:10 26° WSW 03:04:06 39° WNW 03:08:16 10° N
Cosmos 858 Rocket 4.5 03:07:27 20° SSW 03:11:10 85° WNW 03:16:29 10° NNE
Cosmos 1943 3.8 03:07:44 10° NNW 03:13:18 59° ENE 03:18:51 10° SE
Cosmos 1809 Rocket 4.4 03:07:19 10° NNW 03:13:26 79° W 03:19:32 10° S
MSX 4.4 03:07:55 10° NNE 03:13:36 56° E 03:19:15 10° S
Cosmos 1455 Rocket 3.6 03:11:32 24° SW 03:13:47 43° WNW 03:18:04 10° N
IRS-P3 4.4 03:09:07 10° N 03:14:18 52° WNW 03:17:57 19° SW
Cosmos 1626 Rocket 3.4 03:10:21 10° N 03:14:42 84° W 03:19:00 10° S
Cosmos 1758 3.5 03:13:24 23° SSW 03:15:45 56° WNW 03:19:43 10° N
Resurs 1-4 Rocket 3.9 03:14:11 10° NNW 03:17:34 18° WNW 03:20:28 12° W
Spot 4 Rocket 4.0 03:13:03 10° NNE 03:18:15 89° E 03:23:00 12° SSW
Meteor 1-21 Rocket 4.2 03:12:52 10° N 03:18:28 85° ENE 03:24:00 10° SSE
Cosmos 2227 Rocket 3.6 03:15:24 14° W 03:19:09 26° NW 03:23:53 10° N
SeaSat 1 3.3 03:17:46 10° NE 03:22:33 47° ESE 03:27:17 10° S
Landsat 5 3.6 03:20:34 10° SSE 03:24:26 72° ENE 03:28:27 10° N
Cosmos 1461 3.5 03:23:26 19° WSW 03:26:20 50° NW 03:30:48 10° NNE
CZ-2C R/B 2.9 03:22:26 10° NNE 03:26:21 74° ESE 03:30:08 10° S
CZ-2D R/B 3.4 03:23:55 10° N 03:27:57 65° WNW 03:31:10 15° SSW
Cosmos 2227 4.3 03:24:45 12° SSW 03:30:01 80° ESE 03:35:50 10° NNE
FALCON 9 DEB 3.0 03:26:35 10° WNW 03:30:05 79° SW 03:33:32 10° SE
ATLAS 3B CENTAUR R/B 4.3 03:27:04 15° SW 03:31:51 20° SSW 03:36:28 10° SSE
ATLAS CENTAUR R/B 3.9 03:29:22 10° SSE 03:31:53 16° ESE 03:34:19 10° ENE
Cosmos 1340 Rocket 3.6 03:29:56 18° SW 03:32:23 36° WNW 03:36:04 10° N
USA 215 3.7 03:26:04 10° NE 03:32:27 58° NNW 03:38:49 10° WSW
Cosmos 1758 Rocket 4.2 03:28:22 10° N 03:32:38 57° ENE 03:36:53 10° SSE
ERS-2 2.1 03:32:04 10° SSE 03:35:42 86° ENE 03:39:22 10° NNW
Cosmos 724 4.3 03:30:08 10° NW 03:36:08 74° WSW 03:42:13 10° SSE
Meteor 2-21 4.5 03:30:31 10° NNW 03:36:28 61° W 03:42:24 10° S
Cosmos 2228 4.4 03:32:39 10° SSE 03:36:43 40° E 03:40:50 10° NNE
Cosmos 1953 2.4 03:35:03 12° SSW 03:38:40 61° W 03:42:42 10° N
SL-4 R/B 2.2 03:35:41 10° WNW 03:38:46 32° SW 03:41:51 10° SSE
Cosmos 1726 2.4 03:38:38 14° SSW 03:41:37 47° WNW 03:45:11 10° N
Cosmos 1908 3.5 03:39:56 10° S 03:43:49 70° E 03:47:44 10° NNE
Meteor 1-16 Rocket 4.2 03:39:33 10° S 03:44:54 90° E 03:50:27 10° N
Cosmos 2285 Rocket 4.4 03:40:23 10° S 03:46:37 67° ESE 03:52:51 10° NNE
SL-16 R/B 3.6 03:46:14 10° WNW 03:50:01 18° W 03:53:47 10° SW
H-2A R/B 2.1 03:46:05 10° S 03:50:07 53° W 03:54:09 10° NNW
Cosmos 2150 Rocket 4.3 03:46:19 10° S 03:51:25 70° ESE 03:56:38 10° NNE
Cosmos 1937 Rocket 4.2 03:47:07 12° SW 03:51:42 41° WNW 03:56:44 10° N
ARIANE 5 R/B 3.4 03:48:58 10° N 03:53:37 34° WNW 03:58:16 10° SW
Cosmos 1825 Rocket 3.7 03:50:53 10° N 03:55:15 79° E 03:59:34 10° SSE
IDEFIX/ARIANE 42P 3.0 03:52:11 10° N 03:57:08 46° WNW 04:02:05 10° SW
CZ-4C R/B 3.5 03:56:34 10° SSW 03:59:31 34° W 04:02:33 10° NNW
Cosmos 1328 3.8 03:55:39 10° N 03:59:40 81° W 04:03:39 10° S
Cosmos 1953 Rocket 4.2 03:56:49 10° N 04:01:17 61° ENE 04:05:44 10° SSE
NOSS 2-3 (E) 3.9 03:57:58 10° SW 04:02:13 64° NW 04:07:18 10° NE
CZ-4B R/B 2.1 03:59:18 10° SSE 04:02:32 57° ENE 04:05:44 10° N
ADEOS II 3.9 04:01:42 10° NNW 04:04:57 17° WNW 04:08:10 10° W
USA 267 3.5 03:58:52 10° SSE 04:05:06 46° SW 04:11:21 10° WNW
Cosmos 1703 3.5 04:06:34 10° NNW 04:10:26 50° W 04:14:16 10° S
NOSS 3-1 (C) 4.1 04:05:14 10° WSW 04:10:35 44° NW 04:16:50 10° NNE
Cosmos 2263 Rocket 2.4 04:06:20 10° SW 04:11:49 56° WNW 04:17:18 10° NNE
Cosmos 1386 Rocket 4.5 04:06:56 10° N 04:13:00 90° NNE 04:19:01 10° S
Cosmos 372 Rocket 4.3 04:09:11 10° SW 04:14:15 53° WNW 04:19:24 10° NNE
Cosmos 1553 Rocket 4.0 04:08:15 10° SSW 04:14:16 67° W 04:20:22 10° N
Cosmos 2297 Rocket 4.4 04:13:25 10° NW 04:15:15 11° NW 04:17:06 10° NNW
